User: anonymous   Login
Location: Unspecified
(0.0000°N, 0.0000°E)
Time: 06:59:37
(UTC+01:00)
Language:

SeaSat 1 - Orbit

View from above orbital plane
View from above orbital plane
View from above satellite
View from above satellite

Ground track
Ground track

The orbit data is extracted from the following two-line orbital elements,

1 10967U 78064A   15054.78680870  .00000432  00000-0  16855-3 0  9994
2 10967 107.9905 336.0315 0002885 281.5344 078.5476 14.43290999924762
Epoch (UTC): 23 February 2015 18:53:00
Eccentricity: 0.0002885
inclination: 107.9905°
perigee height: 745 km
apogee height: 750 km
right ascension of ascending node: 336.0315°
argument of perigee: 281.5344°
revolutions per day: 14.43290999
mean anomaly at epoch: 78.5476°
orbit number at epoch: 92476

The dashed part of the orbit path shows where the satellite is in the earth's shadow,  

DLR